Location: Unspecified
(0.0000°N, 0.0000°E)
Time: 00:03:06
(UTC+00:00)

Hubble Space Telescope - Pass Details

Date: 14 February 2020
Orbit: 536 x 540 km, 28.5° (Epoch: 26 February)

Event Time Altitude Azimuth Distance (km) Brightness Sun altitude
Rises 19:53:41 0° 274° (W) 2,674 5.5 -24.2°
Reaches altitude 10° 19:56:52 10° 299° (WNW) 1,782 4.0 -25.0°
Maximum altitude 19:59:05 14° 332° (NNW) 1,534 3.2 -25.5°
Enters shadow 19:59:16 14° 335° (NNW) 1,536 3.2 -25.6°
